Theta_e
266 265 265 265 265 264 264 264 264 264 263 263 263 263 263 263 263 263 263 263 262 262 262 262 262 262 262 262 262 262 262 261 261 260 259 259 259 258 258 258 257 257 257 257 257 257 257 257 257 256 256 256 256 256 256 256 257 257 257 257 258 258 258 258 258 258 259 260 260 261 260 260 260 260 261 261 261 261 261 261 261 261 261 261 262
265 264 264 265 264 264 264 264 264 264 263 263 263 263 263 263 263 263 262 262 262 262 262 262 262 262 262 262 262 262 261 261 260 259 259 259 259 258 258 258 257 257 257 257 257 257 257 256 256 256 256 256 256 256 256 256 256 257 257 257 257 257 257 257 258 258 259 259 260 260 260 260 260 260 260 260 260 260 260 260 261 261 261 261 261
264 264 264 264 264 264 264 264 264 264 264 264 263 263 263 263 262 262 262 262 262 262 262 262 262 262 262 262 262 262 261 260 260 259 259 259 259 259 258 258 257 257 257 257 257 257 257 256 256 256 256 256 256 256 256 256 256 256 257 257 257 257 257 257 257 258 258 259 260 260 260 259 260 260 260 260 260 260 260 260 261 261 261 261 261
264 264 264 264 264 264 264 263 264 264 264 263 263 263 263 262 262 262 261 261 262 262 262 262 262 262 262 262 262 261 261 260 260 259 259 260 260 259 258 258 258 257 257 257 257 257 257 257 256 256 256 256 256 256 256 256 256 256 257 257 257 256 256 257 257 257 258 259 259 259 259 259 259 259 259 259 260 260 260 260 261 261 261 261 261
264 264 263 264 264 264 264 263 264 264 263 263 263 263 262 262 262 261 261 261 262 262 262 262 262 262 262 262 262 261 261 260 260 260 260 260 260 260 259 258 258 258 257 257 257 257 257 257 256 256 256 256 256 256 256 256 256 256 257 257 256 256 256 256 256 257 257 258 258 258 258 259 259 259 259 259 259 260 260 260 261 261 261 262 261
263 263 263 264 264 264 264 264 264 263 263 263 263 263 262 262 262 261 261 261 262 262 262 262 262 262 262 262 262 261 261 261 260 260 261 261 261 261 260 259 259 258 258 258 257 257 257 257 257 256 256 256 256 256 256 256 256 256 257 257 256 256 256 256 256 256 257 257 258 258 258 258 258 259 259 259 259 259 260 261 261 261 261 261 261
263 263 264 264 264 264 264 263 263 263 263 263 263 262 262 262 261 261 261 262 262 262 261 261 261 262 262 262 262 262 262 261 260 261 262 262 261 261 261 260 260 259 259 258 258 258 257 257 257 256 256 256 256 256 256 256 256 256 257 257 256 256 256 256 256 256 256 257 257 257 257 258 258 258 258 259 259 260 260 261 261 261 261 261 260
263 263 264 264 264 263 263 263 263 263 263 263 263 262 262 262 261 261 261 262 262 261 261 261 261 261 261 262 262 262 262 262 261 261 262 262 261 261 261 260 260 260 260 259 259 259 258 258 257 257 256 256 256 256 256 256 256 257 257 257 256 256 256 256 256 256 256 256 257 257 257 257 258 258 258 258 259 260 260 261 261 261 261 260 260
263 263 264 264 263 263 263 263 263 263 263 263 263 262 262 262 261 262 262 262 261 261 261 261 261 262 261 261 262 262 262 262 262 261 262 263 262 261 261 261 261 261 261 261 260 260 259 259 258 258 257 257 257 257 257 257 257 257 257 257 257 256 256 256 256 256 256 256 256 257 257 257 257 258 258 258 259 260 261 261 261 260 260 259 259
263 263 264 263 263 263 263 263 263 263 263 263 263 262 262 262 262 262 262 262 261 261 261 261 261 261 261 261 261 262 262 262 263 262 263 263 262 261 262 261 261 261 261 261 261 260 260 260 259 259 258 258 258 258 258 258 258 257 257 257 257 256 256 256 256 256 256 256 256 257 257 257 257 257 258 259 260 261 261 261 260 259 259 259 259
263 263 263 263 263 263 263 263 263 263 263 263 263 262 262 262 262 262 262 262 261 261 261 261 261 261 261 261 261 261 261 262 262 263 264 264 262 262 262 262 261 261 260 260 260 260 261 260 260 260 259 259 258 258 258 258 258 258 258 258 258 257 256 256 256 256 256 256 257 257 256 257 257 258 258 260 260 261 260 259 259 259 259 259 258
263 263 263 262 262 263 263 264 263 263 263 263 262 262 262 262 263 263 263 262 261 261 261 261 261 261 260 260 260 261 261 261 261 262 264 264 262 262 262 262 262 261 261 260 260 260 260 260 260 260 259 259 259 259 259 259 259 258 258 259 259 259 258 257 257 257 256 257 257 257 257 257 257 258 259 260 260 260 259 258 258 258 258 258 258
263 263 263 262 263 263 263 264 263 263 263 263 263 262 262 263 263 263 262 261 261 261 261 261 261 261 260 260 260 261 261 262 262 262 263 263 262 262 263 262 262 261 261 260 260 260 260 260 260 260 260 259 259 258 258 259 259 259 259 259 260 260 259 258 258 257 257 257 257 257 257 257 258 259 260 260 260 259 258 258 258 258 258 258 258
263 263 262 262 263 263 264 264 263 263 263 263 263 262 263 263 263 262 262 261 261 261 261 261 261 261 261 260 260 261 261 262 262 262 262 262 262 263 263 263 262 262 261 261 260 260 260 260 260 260 260 259 259 258 258 258 258 259 259 259 260 260 260 259 258 258 257 257 257 257 257 258 259 259 260 260 259 258 258 258 258 258 258 258 257
263 263 262 263 263 264 264 263 263 263 263 263 263 263 263 263 263 262 261 261 261 261 261 261 261 261 261 260 261 261 262 263 263 263 263 262 262 263 263 263 263 263 262 262 261 261 260 260 260 259 260 259 259 259 258 258 258 258 259 259 259 260 259 259 258 258 258 257 257 257 258 259 259 259 260 259 259 258 257 257 257 257 257 257 257
263 262 263 263 263 264 264 263 263 263 263 263 263 263 263 263 262 262 261 261 261 261 261 261 261 261 261 261 261 261 262 263 263 263 263 262 262 263 263 263 263 263 263 263 262 262 261 261 260 260 260 260 259 259 259 258 258 258 258 259 260 260 260 259 259 258 258 257 258 258 258 259 259 259 259 259 258 257 257 257 257 257 257 257 257
263 262 263 263 263 264 263 263 263 263 263 263 263 263 263 263 262 261 261 261 261 261 261 261 261 261 261 261 262 262 262 263 263 263 262 262 262 263 263 263 264 264 264 263 263 263 262 261 260 260 260 260 259 259 259 258 258 258 258 258 259 260 261 261 261 260 259 258 258 258 258 259 258 258 258 258 257 257 257 257 257 257 257 257 257
263 263 263 263 264 264 263 263 263 263 263 263 263 263 263 263 262 262 262 262 262 262 261 261 261 261 262 262 262 262 262 262 262 262 262 262 262 262 262 263 264 264 264 264 264 263 263 262 261 260 260 260 260 260 259 258 258 258 258 258 258 259 259 260 260 261 261 261 261 260 260 259 258 258 258 258 257 257 257 257 257 257 257 257 257
263 263 263 263 264 264 263 263 263 263 263 263 263 263 263 263 262 262 262 262 262 262 262 262 262 262 262 262 262 262 262 262 262 262 261 261 262 262 262 263 264 264 264 264 264 264 263 263 262 261 260 260 260 260 259 258 258 258 258 257 257 258 258 258 258 258 259 260 260 260 260 259 259 258 258 258 257 257 257 257 257 257 257 257 257
263 263 263 263 263 263 263 263 263 263 263 263 263 263 263 263 263 262 262 262 262 262 262 262 262 262 262 262 262 262 262 262 262 262 262 262 262 262 262 262 263 263 263 263 263 263 263 263 263 262 261 261 261 260 260 259 258 259 258 258 257 258 258 258 258 257 257 257 258 258 259 259 258 258 258 258 258 257 257 257 257 257 257 257 257
263 263 263 263 263 263 263 263 263 263 263 263 263 263 264 263 263 263 263 262 262 262 262 263 263 263 263 263 262 262 262 262 262 262 262 262 262 262 262 262 261 261 262 262 262 262 263 263 263 262 262 261 261 261 261 260 259 259 259 258 258 258 257 257 258 257 257 257 257 258 258 258 258 258 258 258 257 257 257 257 257 257 257 257 257
263 263 263 263 263 263 263 263 263 263 263 263 263 264 264 263 263 263 263 263 263 263 263 263 263 263 263 263 262 262 262 262 262 263 263 263 262 262 262 261 261 260 261 262 262 262 262 262 262 262 262 262 262 262 261 261 260 260 260 259 259 258 258 257 257 257 257 257 257 257 257 257 257 257 257 257 257 257 257 257 257 257 257 257 258
263 263 263 263 263 263 263 263 263 263 263 263 264 264 264 263 263 263 263 263 263 263 264 264 264 264 264 263 262 262 262 262 263 263 263 263 263 263 262 262 261 260 261 261 261 262 262 262 262 262 262 262 263 262 262 261 261 260 260 260 259 259 258 258 257 257 257 257 257 257 257 257 257 257 257 257 257 257 257 257 257 257 257 258 258
262 262 263 263 263 263 263 263 263 263 263 263 264 264 263 263 263 263 263 263 263 264 264 264 264 264 264 264 263 263 263 263 263 264 264 264 263 263 262 262 262 261 261 261 262 262 262 262 263 263 263 263 263 263 262 261 261 261 261 260 259 259 258 258 257 257 256 256 256 256 256 256 256 256 257 257 257 257 257 257 257 257 257 257 258
262 262 263 263 263 263 263 263 263 263 263 263 264 264 263 263 263 263 263 263 264 264 264 264 264 264 264 264 264 264 263 264 264 264 264 264 264 263 263 263 262 262 262 262 262 263 263 263 263 263 263 263 263 263 262 262 261 261 261 260 260 259 258 257 257 256 256 256 256 256 256 256 256 256 256 256 257 257 257 257 257 257 257 257 258
262 262 263 263 262 263 263 263 263 263 263 263 264 263 263 262 263 263 263 264 264 264 264 264 264 264 263 263 264 264 264 264 264 264 264 264 264 264 264 263 263 263 263 263 263 264 264 264 264 264 264 263 262 261 262 262 262 262 261 260 259 258 257 257 256 256 256 256 256 256 256 256 256 256 256 256 256 256 256 256 256 257 257 257 257
262 262 263 262 262 262 262 263 263 263 263 263 263 263 263 263 263 263 264 264 264 264 264 263 263 263 263 263 263 264 264 264 264 264 264 264 264 264 264 264 263 263 263 263 263 264 264 264 264 264 264 264 263 262 262 262 262 262 261 260 259 258 257 257 256 256 256 255 255 256 256 256 256 256 256 256 256 256 256 256 256 256 256 256 257
262 263 263 262 262 262 262 262 263 263 264 264 264 263 263 263 263 264 264 264 264 264 263 263 263 262 262 262 262 263 264 264 263 263 263 263 263 264 264 263 263 262 262 262 263 263 263 263 264 264 264 264 264 264 263 263 262 261 260 259 259 258 257 257 256 256 256 255 255 255 256 256 256 256 256 256 256 256 256 256 256 256 256 256 256
262 263 262 262 262 262 262 263 263 263 264 264 264 263 263 263 264 264 264 264 264 264 263 263 263 262 262 262 261 262 263 264 263 263 263 263 262 262 262 262 262 262 261 261 261 262 263 263 263 263 263 262 263 262 262 262 262 261 260 259 258 258 257 256 256 256 255 255 255 255 255 255 255 255 255 255 255 255 255 255 255 255 256 256 256
262 262 262 262 262 262 262 263 263 263 264 264 264 263 263 263 263 264 264 264 264 263 263 263 263 262 263 263 262 261 262 263 263 263 263 263 263 262 262 262 262 262 262 261 261 262 262 262 262 261 260 260 260 260 259 259 259 260 260 259 258 257 257 256 256 255 255 255 255 255 255 255 255 255 255 255 255 255 255 255 255 255 255 255 255
262 262 262 262 262 262 263 263 263 263 264 264 264 263 263 263 264 264 264 264 264 263 263 263 263 262 262 263 263 262 263 263 263 263 263 263 263 263 262 263 263 262 262 261 261 262 261 260 260 261 260 259 259 258 258 258 257 257 258 258 258 257 256 256 256 255 255 255 255 255 255 255 254 254 254 254 254 254 254 254 254 254 255 255 255
263 262 262 263 262 262 263 263 263 264 264 264 263 263 263 263 263 264 264 264 264 264 263 263 263 263 262 262 262 263 263 263 263 263 263 263 263 263 263 263 263 263 262 261 261 261 261 259 259 260 259 259 259 258 258 257 257 257 256 257 257 257 256 256 255 255 255 255 255 255 255 254 254 254 254 254 254 254 254 254 254 254 254 254 255
264 263 263 263 262 262 263 263 264 264 264 264 263 263 262 263 263 264 264 264 264 264 263 263 263 263 263 262 262 262 263 263 263 264 264 264 263 263 263 264 263 263 263 262 261 261 261 259 259 259 259 258 258 258 258 257 257 257 256 256 256 256 256 256 255 255 255 254 254 254 254 254 254 254 254 253 253 253 253 253 253 253 253 254 254
263 264 263 263 263 263 263 263 264 264 264 264 263 263 262 262 262 263 263 264 264 264 264 264 263 263 263 263 263 263 263 263 264 264 264 264 264 263 263 264 264 264 263 262 261 260 260 259 259 259 259 259 258 258 258 257 257 257 257 256 256 256 256 256 255 255 254 254 254 254 254 254 254 253 253 253 253 253 252 252 252 253 253 253 253
263 263 263 263 263 263 263 264 264 264 264 263 263 262 262 262 262 262 262 263 264 264 265 265 264 264 264 264 263 263 263 264 264 265 264 264 264 264 264 264 265 265 264 263 261 260 260 259 260 260 259 259 258 258 258 257 257 257 256 256 256 256 256 255 255 255 254 254 254 254 254 254 253 253 253 252 252 252 252 252 252 252 252 253 253
262 262 263 263 263 263 263 263 264 264 263 263 263 262 262 262 262 262 262 262 263 263 265 265 266 265 265 264 264 264 264 264 265 265 265 264 264 264 264 264 264 264 264 264 262 261 261 260 260 260 259 259 258 258 258 257 257 257 256 256 256 255 255 255 255 254 254 254 254 253 253 253 253 253 252 252 252 252 252 251 252 252 252 252 252
262 262 263 263 263 263 263 263 263 263 263 263 263 262 262 261 261 262 262 262 262 263 263 264 265 266 266 265 264 264 265 265 265 266 265 265 265 264 263 263 262 262 263 263 262 262 262 261 261 260 259 259 258 258 258 257 257 256 256 256 256 255 255 255 254 254 254 254 253 253 253 253 253 252 252 252 251 251 251 251 251 251 251 252 252
263 263 263 263 263 262 263 263 263 263 263 263 263 262 262 261 262 262 262 262 262 262 263 263 264 265 266 265 265 264 265 265 266 266 266 266 265 265 264 263 262 262 262 262 262 261 261 262 261 260 259 259 258 258 257 257 257 256 256 255 255 255 255 255 254 254 254 253 253 253 253 252 252 252 251 251 251 251 251 250 250 250 251 251 251
262 262 262 262 262 262 263 263 263 263 263 263 262 262 262 262 262 262 262 262 262 262 263 263 264 265 265 265 264 264 264 265 266 266 266 266 266 265 264 264 263 263 262 262 262 261 261 261 261 260 260 259 258 258 257 257 256 256 256 255 255 255 255 254 254 254 253 253 253 253 252 252 252 252 251 251 251 251 250 250 250 250 250 250 251
262 262 262 262 262 262 263 263 263 263 263 263 262 262 262 262 262 262 261 261 262 262 263 263 264 265 265 264 264 263 262 263 265 265 265 265 266 265 265 264 264 263 263 263 262 261 261 260 260 260 259 259 258 258 257 257 256 256 255 255 254 254 254 254 254 253 253 253 253 252 252 252 252 251 251 251 251 250 250 249 249 249 249 250 250
262 262 262 262 262 262 262 263 263 264 263 263 263 262 262 262 262 261 261 261 261 262 263 263 265 266 265 265 264 262 262 262 264 264 264 265 265 265 265 265 264 263 263 263 262 261 260 260 260 259 259 259 258 258 257 257 256 256 255 255 254 254 254 254 253 253 253 253 252 252 252 252 251 251 251 251 250 250 250 249 249 249 249 249 250
262 262 262 262 262 262 263 263 264 264 263 263 263 263 263 262 261 261 261 261 261 262 262 263 265 266 266 265 264 263 263 263 263 264 264 265 265 265 265 265 264 263 263 262 262 261 260 260 260 259 259 258 258 258 257 257 256 256 255 255 254 254 254 253 253 253 253 252 252 252 252 251 251 251 251 251 250 250 249 249 249 249 249 249 249
262 262 262 262 262 262 263 264 264 264 263 263 263 263 262 262 262 261 261 261 261 261 262 263 265 266 266 266 265 264 264 264 264 264 264 265 265 265 265 265 264 264 263 262 262 261 260 260 260 259 259 258 258 257 257 256 256 255 255 254 254 254 253 253 253 253 252 252 252 252 252 251 251 251 251 250 250 250 249 249 249 249 249 249 249
262 262 262 261 262 262 263 263 264 264 264 264 263 263 263 262 262 262 261 261 262 262 262 263 264 265 266 266 266 265 265 264 264 264 264 265 265 265 265 265 264 264 263 263 262 261 260 260 260 259 259 259 258 257 257 256 256 255 255 254 254 254 253 253 253 252 252 252 252 252 252 251 251 251 251 250 250 250 249 249 249 248 248 248 249
261 262 261 261 262 262 263 264 264 264 264 264 263 263 263 263 262 262 262 262 262 262 262 263 264 264 265 266 265 265 265 265 264 264 264 265 265 265 265 264 264 264 263 263 262 261 260 260 259 259 259 259 258 257 257 256 255 255 254 254 254 253 253 253 252 252 252 252 252 252 251 251 251 251 251 250 250 250 249 249 249 248 248 248 248
262 262 262 262 262 263 263 264 264 264 264 264 264 264 264 263 263 262 262 262 262 262 263 263 264 265 265 265 265 265 265 265 265 265 265 265 265 265 264 264 264 263 263 263 262 262 261 260 259 259 259 259 258 257 257 256 255 255 254 254 254 253 253 253 252 252 252 252 252 252 252 251 251 251 251 251 250 250 249 249 249 248 248 248 248
262 262 262 262 262 263 263 264 264 264 264 264 264 264 264 264 263 262 262 262 262 262 263 264 264 265 265 265 265 265 265 265 265 265 265 265 265 264 264 264 263 263 263 263 262 262 261 260 259 259 258 258 258 258 257 256 256 255 255 254 254 254 253 253 252 252 252 252 252 252 252 252 251 251 251 251 250 250 249 249 249 249 248 248 248
261 262 262 262 262 263 263 264 264 264 264 264 264 264 264 264 263 263 263 263 263 263 263 264 264 265 265 266 265 265 265 265 265 265 265 264 264 264 264 263 263 263 263 263 263 262 261 260 260 259 259 258 258 258 257 257 256 256 256 255 255 254 254 253 253 253 252 252 252 252 252 252 251 251 251 251 250 250 250 249 249 249 248 248 248
262 262 262 262 262 263 264 264 264 264 265 264 264 264 264 264 264 263 263 263 263 263 264 264 265 265 265 266 266 266 265 265 265 265 264 264 264 264 263 263 263 262 262 262 263 262 261 261 260 260 259 258 258 258 258 258 257 257 257 256 256 255 254 254 253 253 253 253 252 252 252 252 251 251 251 251 251 250 250 249 249 249 249 248 249
262 262 262 262 263 263 264 264 264 265 264 264 264 265 264 264 264 264 263 263 264 264 264 264 265 265 265 266 266 265 265 265 265 264 264 264 264 263 263 263 263 263 262 262 262 262 261 261 261 260 260 259 259 259 259 259 258 258 257 257 256 256 255 254 254 254 253 253 253 252 252 252 252 251 251 251 251 250 250 250 249 249 249 249 249
262 262 262 262 262 263 264 264 264 265 265 265 265 265 264 264 264 264 263 263 264 265 265 265 265 265 265 266 265 265 265 265 265 264 264 264 263 263 263 263 263 263 262 262 262 262 261 261 261 261 261 261 261 261 260 260 259 258 258 257 257 256 255 255 254 254 254 253 253 252 252 252 252 252 251 251 251 250 250 250 250 249 249 249 249
Wind_Speed
20 19 19 19 19 19 18 18 18 18 18 17 18 18 17 17 16 15 16 17 17 18 19 19 18 17 17 19 21 23 24 23 24 25 23 22 21 21 22 22 23 24 24 25 25 26 26 25 24 25 24 24 25 24 24 25 26 26 24 23 24 22 23 21 13 16 29 34 31 33 35 36 36 36 36 37 37 36 38 40 39 37 37 38 39
19 18 18 18 18 18 18 17 17 17 17 17 17 17 16 16 15 15 17 18 18 19 19 19 18 17 17 19 21 23 23 23 24 24 22 21 22 21 21 22 22 23 24 24 25 25 26 26 26 26 25 25 25 24 25 26 26 26 25 24 25 25 23 23 20 16 23 33 34 34 37 36 35 37 36 35 36 38 39 40 38 37 38 36 36
19 18 18 18 18 17 17 17 16 16 16 16 16 16 16 15 15 16 18 18 18 19 19 18 17 16 17 19 21 23 23 23 23 23 23 23 22 21 21 21 20 21 22 23 24 25 25 27 27 27 26 26 27 26 26 27 27 25 26 25 26 27 25 23 22 20 22 29 33 33 36 37 34 36 37 36 36 37 38 38 38 38 37 35 35
18 18 18 18 17 17 16 16 15 15 15 15 15 15 15 15 16 17 18 18 18 18 18 18 17 16 17 19 21 23 23 23 22 23 25 25 23 22 21 20 20 20 21 21 22 24 25 26 27 27 27 27 28 28 27 28 28 26 26 27 27 28 27 25 23 22 22 26 31 34 34 35 34 33 34 37 40 40 37 35 36 38 37 34 35
18 18 18 18 17 16 16 15 15 15 15 14 14 14 14 15 16 16 17 18 18 17 17 17 18 17 17 19 21 22 23 23 21 23 26 26 23 22 21 20 20 20 20 21 21 22 23 24 26 26 26 28 28 29 29 29 29 27 27 28 29 29 28 27 25 24 23 24 29 34 34 34 35 33 31 34 40 43 41 37 34 34 35 37 38
18 18 17 17 17 16 15 15 14 14 14 13 13 13 13 14 15 16 16 16 17 17 17 18 19 18 17 17 19 21 22 23 20 21 26 27 24 22 22 21 21 20 20 20 20 21 22 22 24 25 25 27 28 28 29 29 29 28 28 29 31 31 29 28 26 25 24 24 27 32 33 33 34 34 34 34 35 37 41 43 41 35 32 37 42
18 18 17 17 17 16 15 14 13 13 12 12 12 12 12 13 13 14 14 14 16 17 18 19 19 19 17 16 17 19 21 23 21 20 25 28 24 22 22 21 21 21 21 21 21 21 22 22 22 23 24 25 26 27 28 29 29 28 28 30 31 31 30 29 28 26 25 25 26 28 31 32 30 31 35 38 35 33 35 38 40 40 37 37 40
18 18 17 17 17 16 14 13 13 12 11 11 11 11 11 12 12 12 12 13 15 16 17 18 19 19 17 15 16 17 19 22 22 19 22 26 25 21 22 22 22 22 22 22 22 22 22 23 23 24 24 24 25 26 26 27 28 28 29 30 31 31 29 28 28 27 25 25 26 27 29 30 29 30 34 36 33 32 35 33 31 35 41 41 39
18 18 17 17 16 15 14 13 12 11 10 10 10 10 10 11 10 10 10 12 14 15 16 17 17 18 18 16 15 16 17 20 21 18 19 23 24 21 21 22 22 23 23 23 23 24 24 24 24 25 25 26 27 27 25 25 26 26 28 30 31 30 29 28 27 26 26 24 24 26 26 25 27 30 32 33 31 32 35 32 27 32 39 40 37
18 18 17 17 16 14 13 13 12 11 11 10 10 9 9 9 8 8 9 11 12 13 14 15 16 17 18 17 17 16 16 18 20 18 17 21 22 21 20 21 21 22 23 24 25 25 25 25 25 26 26 28 29 29 27 27 27 27 28 30 30 28 27 27 26 26 25 23 23 25 22 21 27 31 32 35 35 32 30 28 27 32 33 30 29
19 18 17 16 15 14 13 13 12 11 11 10 9 9 9 8 7 6 8 9 10 11 12 14 15 16 16 17 17 17 16 16 18 18 17 19 21 20 19 20 20 21 22 23 24 25 25 25 25 26 27 28 29 30 28 27 28 29 30 31 29 26 25 25 25 25 24 23 25 25 21 22 29 33 33 35 33 29 30 30 28 29 26 18 17
19 18 17 16 15 14 13 13 12 11 10 10 9 9 8 6 6 6 7 8 8 10 11 12 13 14 14 16 16 16 17 17 16 17 17 17 19 20 19 19 20 21 21 22 23 24 25 26 26 26 27 28 29 30 30 29 30 31 32 32 30 27 25 22 22 24 24 24 26 26 25 26 31 33 33 32 31 31 32 31 28 26 24 17 14
20 19 18 16 15 15 14 13 12 11 10 9 9 8 7 6 6 6 7 7 7 8 10 10 11 12 13 14 15 15 16 17 16 16 17 17 18 19 20 20 20 20 21 22 22 23 24 26 27 27 27 28 29 31 30 30 31 32 33 33 31 29 27 24 23 23 23 23 25 27 29 30 32 34 32 30 32 33 32 31 30 28 24 20 21
20 19 18 17 16 15 14 13 12 11 10 9 9 8 6 5 6 7 7 7 7 7 8 9 9 11 11 12 13 14 14 15 16 16 17 16 18 19 20 20 20 21 21 22 22 22 23 25 27 28 28 28 29 31 30 30 31 33 34 34 33 32 30 28 28 26 24 24 25 28 30 30 31 33 32 30 31 32 31 32 32 30 28 27 27
20 19 18 17 16 15 14 13 12 11 10 9 8 7 6 6 7 7 7 7 6 6 7 7 8 9 9 10 11 12 13 14 15 16 16 17 18 19 20 21 21 21 22 22 22 22 22 23 25 27 28 28 29 29 29 29 30 33 35 35 35 34 31 30 30 28 26 25 25 27 28 28 28 28 28 29 29 29 30 31 30 30 30 29 27
21 20 19 17 16 15 14 13 12 11 10 9 9 8 7 7 7 7 6 6 5 5 5 5 6 7 8 9 10 10 12 13 14 15 16 17 18 19 21 21 22 22 22 22 22 21 22 23 24 25 27 27 28 28 26 27 30 33 35 35 36 36 34 33 32 30 29 27 26 25 25 25 25 25 25 26 26 28 29 29 28 28 26 23 20
22 20 19 18 17 16 15 13 12 11 10 9 9 8 7 7 7 6 5 4 4 4 4 4 5 6 7 8 9 10 11 12 13 15 16 17 19 20 21 22 23 24 23 23 23 22 22 23 23 25 26 27 27 27 26 26 29 32 34 35 36 37 36 36 35 34 32 31 29 27 26 26 27 26 26 26 26 27 27 26 27 28 23 15 12
22 21 19 18 17 16 15 13 12 11 10 9 9 8 7 6 5 4 4 3 3 4 4 3 4 5 7 8 8 9 10 11 12 13 15 17 18 20 22 23 24 25 25 24 23 23 23 23 23 25 26 26 26 26 25 25 28 30 31 33 34 35 37 38 37 36 35 33 32 31 30 30 30 29 29 29 28 27 26 25 28 27 21 14 13
23 22 20 18 17 16 15 13 12 11 10 10 9 7 6 5 4 3 2 2 2 3 3 3 4 5 6 7 8 8 9 10 11 13 14 16 18 20 22 24 25 25 25 26 25 25 24 24 24 25 25 26 26 25 24 24 26 27 28 29 31 33 35 36 36 37 37 36 35 35 34 33 32 31 31 30 30 29 26 27 28 26 21 19 19
23 21 20 19 17 16 15 13 12 11 10 10 9 7 6 5 4 3 2 1 2 2 3 3 4 5 5 6 7 8 9 10 11 12 14 16 18 19 21 23 25 25 26 27 28 27 26 26 26 26 26 26 25 25 24 24 24 25 26 26 28 31 33 35 34 34 35 35 35 35 35 34 34 33 33 32 32 31 29 28 27 25 23 23 22
23 22 20 19 17 16 15 13 12 11 11 10 9 7 6 5 4 3 2 1 2 2 2 2 3 4 4 5 6 7 9 10 11 12 14 15 17 18 19 21 23 26 27 27 28 28 28 28 28 28 27 27 25 25 24 23 23 24 25 24 25 28 30 32 33 33 33 34 34 35 35 35 35 35 35 35 34 33 32 30 28 27 25 24 23
23 22 20 19 17 15 14 13 12 11 11 10 9 7 6 5 4 3 2 1 1 2 1 1 2 2 3 4 5 7 9 10 11 12 13 15 16 17 19 21 22 25 26 27 28 28 29 29 29 29 28 26 26 25 24 24 24 25 25 25 26 28 29 30 31 32 32 32 33 34 34 35 36 36 36 36 36 35 33 31 29 28 26 24 24
23 22 20 19 17 15 14 13 12 11 11 10 8 7 6 5 4 3 2 1 1 1 1 1 2 2 2 3 5 7 8 10 12 13 13 14 15 16 18 20 21 23 25 27 28 29 29 29 29 29 28 27 26 26 25 25 26 26 27 27 28 29 30 31 31 31 31 31 31 32 33 33 34 35 35 36 36 35 33 31 30 28 26 26 25
23 22 20 19 17 15 14 13 13 12 11 10 8 7 6 4 3 2 1 0 1 2 2 3 3 4 5 5 6 7 9 10 11 12 13 14 15 17 18 20 21 23 24 26 27 28 29 29 29 29 28 27 27 27 26 26 27 27 28 29 29 30 30 31 31 31 31 31 30 31 32 32 33 34 35 36 36 35 33 32 30 29 27 26 25
24 22 21 19 17 15 14 13 13 12 11 10 9 7 6 5 4 3 2 1 2 2 3 5 6 7 8 9 9 9 10 11 12 13 14 15 16 17 19 20 21 23 24 26 27 27 28 28 29 29 28 28 29 28 28 28 28 29 29 29 30 30 30 30 30 30 29 30 30 31 32 33 33 33 33 34 34 34 35 35 33 31 29 28 26
24 22 21 19 17 16 15 14 13 12 12 11 10 8 7 6 5 4 3 3 3 4 4 6 7 9 10 12 12 12 12 13 14 15 16 17 18 19 21 21 22 23 24 26 27 27 27 27 28 29 29 30 30 29 30 30 30 30 31 30 30 30 29 28 28 28 28 29 30 31 33 34 34 34 33 34 33 33 34 35 34 33 32 30 28
24 23 21 19 18 16 15 14 14 13 12 11 10 9 8 7 6 6 5 5 4 5 6 7 8 10 12 14 15 15 14 15 16 18 19 20 21 22 22 23 24 25 26 27 28 28 28 28 29 29 30 30 31 30 31 32 32 32 32 32 31 30 29 28 27 26 27 29 31 32 33 33 34 34 34 34 33 33 33 33 32 32 32 31 27
24 23 21 20 18 17 16 15 15 14 13 11 10 9 8 8 7 7 6 6 5 6 7 8 9 11 14 16 18 18 17 16 18 20 21 22 24 24 25 25 26 27 27 29 30 29 29 29 30 30 31 32 32 33 34 34 34 34 33 33 33 31 30 29 29 28 28 29 30 32 33 34 33 33 34 33 33 33 33 32 30 30 31 28 24
24 22 21 20 18 17 16 15 15 14 12 11 9 9 8 8 8 7 7 7 7 7 8 9 9 11 14 15 17 20 21 19 19 19 20 21 22 24 26 26 27 28 27 28 29 30 30 31 31 32 32 33 34 35 36 36 37 36 35 34 34 33 31 30 30 31 31 30 30 31 32 33 33 33 33 33 33 34 33 32 30 30 29 26 23
25 23 21 20 19 18 17 16 15 13 12 10 9 9 9 9 9 8 7 7 8 8 9 10 10 12 14 14 14 18 21 21 20 20 20 20 21 22 24 25 25 26 27 27 28 28 29 31 32 32 32 32 33 33 34 35 36 37 37 36 34 32 32 31 30 31 32 31 30 29 30 31 32 32 32 32 34 34 33 31 29 28 27 26 23
27 25 23 21 20 18 17 16 14 13 11 10 9 9 9 9 9 9 8 8 8 9 10 11 11 12 14 16 16 17 18 19 20 21 21 21 22 23 24 24 24 25 25 26 27 28 28 30 32 32 32 31 31 32 33 33 34 35 37 37 36 33 32 32 32 32 32 31 30 29 29 29 30 31 31 31 32 33 33 32 30 28 26 24 23
28 26 24 22 20 18 17 16 15 13 12 11 9 9 9 9 9 9 9 9 10 10 10 10 11 12 14 16 18 19 19 19 20 21 21 22 23 23 24 25 24 25 24 24 25 27 28 28 30 32 32 32 32 32 33 33 33 33 34 35 36 35 33 33 33 32 31 30 30 30 29 29 29 30 30 30 30 31 32 31 30 28 26 24 23
27 25 24 22 20 19 17 16 15 14 12 11 9 9 9 9 10 10 9 9 10 11 11 11 12 13 14 15 17 19 20 20 21 21 21 22 23 24 25 25 25 24 24 23 25 27 29 29 31 31 31 32 33 33 33 33 33 33 33 33 34 35 35 34 32 31 30 29 29 29 29 29 29 29 30 30 29 28 29 29 29 28 26 25 24
25 24 23 22 21 19 18 16 15 13 12 10 9 9 9 10 10 11 10 10 10 11 10 10 11 13 14 15 16 18 19 20 21 21 22 22 23 24 26 26 25 25 24 24 25 27 29 30 31 32 32 33 33 33 34 33 33 33 34 34 34 35 35 34 32 31 30 29 29 28 28 28 28 28 29 30 29 28 27 27 28 28 26 25 25
24 23 22 21 20 19 17 16 15 13 11 10 9 9 9 10 10 11 12 12 13 13 12 10 10 12 14 15 16 17 19 20 21 21 21 22 23 25 26 28 28 28 28 27 27 28 29 31 32 33 33 34 34 33 34 34 34 33 34 35 36 36 35 34 33 31 30 30 29 28 28 27 27 27 28 28 28 27 27 27 27 26 25 25 24
25 24 22 21 20 19 17 16 14 12 11 10 9 10 10 11 11 11 12 13 15 17 17 15 13 13 13 14 16 18 20 21 22 22 21 22 23 24 26 28 30 31 31 31 30 31 31 32 32 34 34 34 35 34 34 34 34 34 33 34 35 35 35 34 33 32 31 30 29 28 27 27 27 27 27 27 27 26 26 27 26 25 25 24 24
26 24 23 22 20 19 17 16 14 13 11 11 10 10 11 11 12 12 13 14 16 18 19 19 19 17 15 15 17 20 22 22 21 21 21 22 23 25 26 28 29 30 32 32 32 33 34 34 34 34 35 35 35 35 35 35 35 35 34 33 33 34 34 33 31 31 30 30 29 28 27 27 27 27 26 26 26 26 27 27 26 25 24 24 23
25 24 23 22 21 20 18 16 15 13 12 11 11 11 12 12 12 13 15 16 17 19 20 20 21 21 20 20 20 22 24 25 24 23 23 24 25 27 28 29 29 30 31 32 32 33 34 36 36 36 36 36 36 36 36 36 35 35 34 34 34 34 33 33 31 30 30 29 29 28 27 27 26 26 26 25 25 26 27 28 27 25 24 24 22
24 23 23 22 21 20 18 17 15 14 13 11 11 11 12 13 13 14 16 17 19 20 20 21 22 22 22 23 24 25 27 28 28 28 28 28 28 29 30 31 31 31 32 33 33 34 35 36 37 37 37 37 37 36 36 36 36 35 35 34 34 33 33 32 32 31 30 30 29 28 27 26 26 26 25 24 24 26 27 27 27 25 24 24 23
26 24 23 23 22 21 19 17 16 14 13 12 11 11 13 14 14 16 17 19 20 21 21 23 23 22 22 24 25 27 29 31 31 31 31 31 31 31 31 32 32 33 34 34 35 35 36 37 37 37 37 37 37 37 36 36 36 35 35 33 33 33 32 32 31 31 30 30 29 28 27 27 26 26 25 24 24 25 26 26 26 25 24 23 23
26 25 24 23 22 21 19 18 17 15 13 12 12 12 14 14 15 17 18 20 21 22 23 24 24 23 23 24 25 26 28 31 31 32 32 32 32 33 32 33 33 33 34 35 35 36 36 37 37 38 38 37 37 37 36 36 35 35 34 33 33 33 32 31 30 30 30 30 29 28 27 26 26 25 25 25 25 25 25 25 25 24 23 22 22
26 26 25 23 22 21 20 19 17 15 14 14 13 13 14 15 16 18 20 21 22 23 24 25 24 23 24 25 26 27 28 30 31 32 32 32 33 33 34 34 34 34 35 35 35 36 36 37 38 37 37 37 37 36 36 36 35 34 34 34 33 33 32 32 30 30 29 29 28 28 27 27 26 25 25 26 26 26 26 26 24 23 23 22 22
26 25 24 23 22 21 20 19 17 16 16 15 14 14 14 16 18 19 21 23 23 24 26 26 26 25 25 26 26 28 29 30 31 32 33 33 34 34 35 35 35 35 35 35 35 35 36 37 37 37 37 36 36 35 34 34 34 33 33 33 33 32 32 31 30 30 29 29 29 28 27 26 26 26 26 26 26 26 26 26 24 23 22 22 22
25 24 24 23 22 21 20 19 18 17 17 16 16 15 16 17 19 21 22 24 25 25 26 27 27 27 27 28 28 29 30 30 31 32 33 34 35 35 35 36 36 36 36 36 36 35 36 36 37 37 37 36 35 34 34 33 32 32 31 32 32 32 31 31 30 29 29 29 29 29 28 27 27 27 27 26 26 26 26 26 25 24 23 22 21
26 25 24 24 23 22 21 19 19 18 18 17 17 17 17 18 20 22 23 25 26 26 27 27 27 27 29 29 30 30 31 31 32 33 34 35 35 36 36 37 37 37 37 37 37 36 36 36 36 37 37 36 35 34 34 33 31 30 29 29 30 30 30 29 28 27 26 26 28 28 28 28 28 27 27 26 26 26 26 26 25 24 24 23 22
26 25 24 24 23 22 21 19 19 19 18 18 18 18 19 19 21 22 23 25 26 27 27 27 27 27 28 30 30 31 31 32 33 34 34 35 36 36 37 37 38 38 38 38 37 37 36 35 35 35 36 36 35 35 34 33 32 30 29 28 27 27 27 25 24 24 24 24 26 27 27 28 28 27 27 27 27 26 26 26 24 23 23 23 23
27 25 24 24 23 22 21 19 19 19 19 19 19 19 19 20 21 22 24 25 26 26 27 27 27 27 28 29 30 31 32 33 34 34 35 36 36 37 37 38 38 38 38 38 37 37 36 35 35 35 35 35 35 35 34 33 32 30 29 27 26 25 23 22 21 22 22 22 23 24 25 26 27 27 27 27 27 26 26 25 24 23 23 22 22
27 26 24 24 23 22 21 20 20 20 20 19 19 19 19 20 22 23 23 24 25 26 27 27 27 27 28 29 30 31 32 33 34 35 36 36 37 37 38 38 38 39 39 38 37 36 36 35 35 35 34 34 34 34 33 33 31 29 27 26 23 22 20 19 20 20 21 21 21 22 23 24 26 27 27 27 27 26 26 25 25 24 23 22 21
28 27 25 25 24 23 22 21 20 20 19 18 19 19 20 21 22 23 23 24 25 26 27 28 27 28 28 29 30 31 32 34 35 36 36 37 37 37 38 39 39 39 39 38 37 37 36 35 35 35 34 34 34 33 32 31 29 27 25 24 22 20 19 18 19 19 19 20 20 21 22 24 26 27 27 27 26 25 25 25 25 24 23 21 21
28 28 26 25 24 23 21 20 20 19 19 18 19 20 20 21 22 22 23 24 25 25 27 27 27 28 29 29 31 32 33 34 35 36 37 37 38 38 38 39 39 38 38 38 37 36 36 35 35 35 34 34 33 32 30 29 27 25 24 23 21 20 19 19 19 19 19 19 21 22 23 25 26 27 27 27 26 25 25 24 23 23 22 21 21
29 28 27 26 25 23 21 21 20 19 19 19 19 19 20 21 22 22 22 23 24 26 27 28 27 28 29 30 31 32 33 34 35 36 37 37 38 38 39 39 38 38 38 37 37 36 36 35 35 34 34 33 32 30 29 28 26 25 24 23 22 21 20 20 20 19 19 19 21 23 24 25 26 27 27 27 26 25 25 24 23 22 21 20 20
Wind_Direction
108 108 106 105 103 101 98 95 94 94 93 90 85 80 75 71 67 64 61 56 52 50 48 47 44 45 51 48 42 39 37 33 30 29 26 20 21 23 22 24 24 22 20 19 18 17 14 13 10 8 6 0 359 359 355 354 354 353 352 348 343 342 337 328 313 302 311 318 321 321 327 332 331 333 334 333 335 335 335 336 338 338 337 337 337
114 113 111 109 106 103 100 99 98 98 96 91 87 82 78 74 70 65 60 55 52 50 48 47 45 48 54 51 45 42 39 35 32 29 23 19 22 24 24 25 25 22 21 18 16 15 12 10 8 6 4 360 359 359 355 354 355 351 349 348 341 339 339 330 319 308 309 316 321 323 327 332 331 331 333 332 332 333 334 336 337 337 336 336 336
119 117 115 112 109 106 104 103 102 100 96 92 89 86 81 77 71 65 61 56 52 50 48 46 46 52 58 53 48 45 41 38 34 29 23 20 23 26 27 28 26 23 21 17 15 13 10 8 6 4 2 358 357 358 356 354 354 350 346 345 341 337 338 333 323 314 308 312 319 322 326 329 329 329 331 331 331 332 333 335 336 335 335 336 336
123 121 119 115 113 111 108 107 105 101 97 94 92 89 85 79 73 66 62 58 54 52 50 48 49 55 60 55 49 46 42 39 35 28 24 23 24 28 30 30 29 26 22 19 16 13 9 6 4 4 1 358 356 357 356 354 353 350 344 342 341 337 334 333 327 319 312 310 315 320 323 325 325 328 331 332 333 334 333 333 335 335 335 335 335
127 125 122 119 116 114 112 110 107 103 100 98 95 92 87 81 74 68 64 60 57 55 53 51 50 55 60 57 51 46 41 39 35 27 25 24 23 28 32 30 29 28 24 21 18 14 10 6 4 4 1 357 356 355 355 354 352 348 344 341 341 338 335 334 330 325 317 310 313 319 323 326 326 328 333 334 333 333 333 333 334 334 335 334 334
131 129 126 122 119 116 114 113 110 107 104 102 99 95 89 82 75 70 66 63 61 58 55 53 52 55 60 59 55 49 42 40 34 25 24 22 20 25 30 30 29 28 25 23 20 15 12 8 5 5 2 357 355 354 353 352 349 346 343 342 341 340 337 336 334 329 323 316 315 319 323 327 328 328 333 336 333 331 332 333 334 335 336 334 333
135 133 129 125 121 118 116 114 113 111 109 107 104 99 93 86 78 72 67 65 65 62 58 56 54 55 59 60 58 51 44 41 33 22 20 18 14 18 24 26 26 26 24 22 21 17 14 12 8 5 3 357 353 352 351 349 347 344 343 341 341 340 338 336 335 332 327 322 321 321 322 326 327 326 331 336 334 333 334 331 329 333 335 334 332
139 135 131 127 123 119 117 117 116 116 115 113 109 102 97 89 81 76 70 67 66 63 60 58 56 56 56 58 59 55 50 44 33 19 14 12 9 12 18 20 20 20 21 20 19 18 15 13 12 8 4 359 355 355 352 349 346 342 342 342 340 339 337 335 334 332 329 325 323 324 323 324 327 327 330 336 336 334 336 331 323 328 332 330 330
142 138 134 129 125 122 121 120 120 122 123 120 114 107 101 93 86 82 76 71 68 64 61 59 58 57 54 52 55 56 55 50 38 22 8 5 5 9 14 17 16 14 15 16 15 15 14 12 12 10 7 3 0 358 357 356 351 342 340 341 340 339 337 335 333 331 329 326 324 326 326 324 328 331 331 334 332 327 330 331 325 326 328 326 328
145 140 136 132 130 129 128 125 127 129 129 125 119 114 107 99 93 87 81 76 71 65 62 59 56 53 49 46 46 50 55 55 48 36 11 358 1 8 11 14 16 13 11 11 10 10 10 10 10 9 7 5 2 360 358 359 357 348 343 343 342 339 336 333 332 331 329 326 325 328 327 323 328 331 327 327 328 327 331 334 329 327 329 326 327
146 143 140 137 136 136 134 133 134 134 132 129 126 121 114 107 101 95 87 80 73 66 62 59 56 50 44 41 38 41 46 49 50 47 25 357 358 9 11 11 14 13 10 9 6 5 5 6 8 8 7 5 1 359 357 357 357 351 346 347 347 346 341 333 329 330 329 325 325 327 325 320 324 327 325 326 330 332 334 334 329 328 331 330 326
148 146 143 142 143 142 140 138 138 138 135 134 132 126 120 116 110 101 94 83 72 66 61 58 54 47 41 37 32 32 38 40 42 46 34 4 357 8 11 11 13 12 11 10 6 4 2 1 4 6 5 4 1 357 355 356 355 350 345 348 351 352 351 343 333 330 328 324 323 325 324 321 321 324 327 329 332 332 331 331 331 329 328 326 321
151 149 147 147 148 145 144 143 142 141 139 138 137 131 128 125 113 102 94 84 74 67 61 56 52 45 37 32 28 25 30 35 34 38 34 9 358 9 13 11 14 13 11 11 7 5 3 359 360 2 3 3 1 357 354 352 351 348 346 349 352 354 356 354 348 340 332 326 321 320 323 323 320 323 329 332 332 332 331 331 331 330 326 324 320
154 153 151 152 151 149 148 147 145 145 144 142 142 139 136 128 112 102 95 86 76 65 57 53 47 41 32 26 23 19 23 29 29 31 30 11 0 9 14 12 15 14 11 10 7 5 3 360 357 358 359 1 360 356 352 349 345 344 345 347 350 352 354 354 353 348 339 332 324 319 324 326 322 323 330 333 333 333 331 329 329 328 323 321 319
157 157 155 154 155 153 151 150 149 149 149 148 148 145 139 128 116 105 93 81 71 58 49 45 39 34 27 20 18 17 17 22 24 25 25 13 3 9 13 13 14 14 12 10 8 6 4 1 358 356 356 358 358 356 352 348 343 342 343 345 346 349 352 351 349 346 340 335 328 324 326 328 326 327 331 333 333 333 330 327 325 324 320 319 321
161 160 158 158 158 156 154 154 153 153 155 156 155 153 143 130 117 106 94 83 75 61 46 36 27 22 19 15 15 15 15 16 18 19 19 11 4 6 10 12 12 13 12 9 7 7 5 1 359 356 355 356 356 356 354 348 344 343 343 344 346 349 351 350 348 345 343 340 336 332 330 330 332 332 334 336 336 335 332 329 328 328 324 320 323
163 162 161 161 161 159 156 156 158 159 162 162 162 161 148 132 119 108 98 88 78 63 46 29 12 5 8 12 13 13 13 13 14 14 13 7 4 4 6 9 10 9 9 8 6 5 5 3 0 356 354 355 354 355 356 351 345 344 343 343 345 347 349 351 351 350 349 347 345 344 343 344 346 344 344 346 345 341 336 331 332 333 329 324 325
165 164 164 164 163 161 159 158 162 165 168 170 170 165 152 139 125 111 98 83 67 53 41 25 8 2 5 8 11 11 11 12 11 12 10 5 4 4 3 5 7 6 5 5 4 4 3 3 3 358 354 355 354 355 359 353 344 343 343 342 342 343 344 346 347 349 352 354 354 355 354 354 353 351 351 352 351 349 343 334 333 332 328 323 320
166 165 166 166 165 163 161 162 165 169 174 178 175 169 159 149 133 117 105 81 60 40 30 22 13 12 9 4 7 9 10 11 10 11 11 6 4 4 2 1 3 2 0 359 359 2 2 1 1 359 355 354 354 356 360 354 343 343 345 342 339 338 339 341 341 343 346 349 352 353 354 354 353 351 352 352 352 352 347 339 336 332 324 321 319
166 165 167 167 166 164 163 165 168 174 180 181 178 174 163 151 137 128 119 75 54 35 23 16 10 13 11 2 3 5 6 10 10 9 11 8 4 3 2 359 356 354 354 353 352 354 356 357 358 358 355 354 355 357 1 355 346 346 349 343 336 334 336 339 341 342 341 341 344 346 348 350 351 351 351 351 351 351 348 345 341 334 326 319 318
166 167 168 168 167 165 165 167 171 177 183 182 180 174 158 143 135 126 109 68 54 39 28 17 5 3 3 359 1 2 1 5 8 8 10 8 4 1 0 358 354 349 347 348 348 348 350 352 354 355 355 354 356 359 360 356 351 351 352 345 338 337 337 339 341 343 342 341 342 344 345 347 349 350 350 349 349 349 347 346 343 339 332 323 317
167 168 169 168 168 168 168 171 173 178 182 182 179 172 155 142 134 119 102 71 48 43 32 19 3 353 355 355 358 3 1 1 4 7 8 7 5 1 358 356 353 347 344 344 345 345 346 348 350 352 353 353 355 357 357 355 354 354 353 349 346 346 344 342 342 343 342 342 342 342 344 346 345 346 346 346 346 346 345 344 344 343 339 333 325
168 169 170 169 169 171 172 175 178 180 184 184 180 172 160 149 144 138 124 78 18 13 4 357 348 342 350 360 0 2 2 1 1 4 6 5 2 359 357 354 351 346 343 342 342 343 344 346 347 348 350 351 354 355 354 354 354 354 353 352 352 351 348 347 346 344 342 341 341 341 342 343 342 341 342 342 342 343 343 343 344 344 343 341 337
170 171 171 171 172 174 175 178 182 186 188 188 183 176 168 164 168 176 176 227 319 341 345 340 341 343 348 356 0 359 360 1 1 2 3 2 360 357 355 352 350 346 343 342 342 342 343 343 344 345 347 349 352 353 353 353 353 353 354 353 352 352 351 349 347 344 341 341 340 338 338 340 339 338 338 338 339 341 343 343 345 346 345 342 342
172 172 172 173 174 176 178 180 185 190 191 189 185 179 178 184 196 210 225 252 291 316 330 335 341 345 344 346 350 355 357 358 360 0 359 357 356 355 353 352 349 346 342 341 341 341 341 341 342 343 345 348 350 351 352 352 352 352 353 353 352 352 351 348 345 343 340 339 337 335 335 336 337 336 336 338 340 343 345 344 345 347 347 345 344
173 173 174 175 176 178 181 183 187 191 191 189 187 185 189 199 208 224 241 258 282 303 322 332 337 340 340 339 341 348 354 355 356 357 356 353 353 352 351 350 348 345 341 339 339 340 341 341 342 343 346 348 348 347 348 350 351 352 352 352 351 350 349 346 343 341 338 336 334 333 333 334 336 337 338 340 342 344 346 344 343 345 347 346 344
175 175 175 177 179 181 185 187 189 191 191 191 191 191 197 206 216 227 242 257 277 298 315 326 332 335 337 336 336 341 349 353 353 354 352 350 349 349 348 347 345 343 340 338 338 339 340 340 342 343 345 347 348 348 348 348 349 350 350 350 349 349 348 345 342 339 336 334 332 331 332 334 337 339 340 341 341 343 346 345 342 342 345 345 343
178 177 177 180 182 184 188 192 193 193 194 194 196 199 205 216 227 235 246 260 276 294 309 320 328 331 332 333 333 335 342 350 351 349 347 346 345 344 343 342 340 339 338 336 335 335 336 337 340 344 346 347 348 349 349 348 347 347 347 346 346 347 347 346 344 341 338 336 333 333 334 336 337 338 339 339 340 342 345 345 343 341 342 345 344
179 178 179 182 185 187 190 195 196 197 198 199 203 211 220 230 241 250 258 268 281 296 305 315 323 325 326 330 327 325 331 341 345 341 340 340 339 337 337 336 334 333 334 333 331 330 333 335 339 342 344 344 344 345 345 345 344 344 344 344 344 344 345 344 342 340 339 337 335 334 334 335 335 337 338 338 338 340 343 344 343 341 342 344 343
178 180 182 184 187 189 191 195 197 199 202 206 212 222 233 241 249 257 266 274 284 296 303 311 320 321 321 326 323 317 321 330 334 334 333 334 333 332 331 331 330 330 331 330 328 327 330 333 335 338 339 338 338 339 339 339 339 339 340 340 340 341 341 341 340 339 338 337 335 334 334 334 334 335 337 336 335 338 341 343 343 342 343 342 340
180 182 185 187 189 191 193 195 198 200 203 208 216 229 241 250 254 259 267 274 282 292 300 308 315 317 317 319 320 317 319 323 326 328 329 329 330 329 328 329 331 331 330 328 326 326 328 330 331 334 335 334 334 334 334 334 334 334 335 336 337 338 338 337 338 338 336 336 335 334 334 334 333 333 335 334 334 335 338 341 343 343 342 341 338
184 183 186 189 190 193 195 197 199 200 203 210 219 231 247 258 263 266 270 277 285 294 297 301 307 312 313 313 314 316 319 322 323 324 326 326 327 327 327 328 331 331 331 327 324 326 328 328 328 330 332 331 331 331 331 331 331 331 331 331 332 334 334 334 335 335 334 334 334 333 334 334 333 333 333 334 334 335 337 339 342 341 340 339 338
188 185 186 189 191 193 196 199 201 202 205 211 221 233 249 262 270 276 279 279 286 294 296 297 303 307 309 311 310 311 315 318 321 322 324 325 326 326 326 328 330 331 332 330 326 327 329 328 327 328 329 328 328 329 329 329 329 329 328 327 327 328 330 332 333 333 334 334 333 332 332 334 334 333 333 334 335 335 336 337 338 339 338 338 337
191 190 190 191 193 194 197 200 202 204 207 214 226 239 252 264 273 284 291 289 287 288 287 288 296 301 305 308 308 308 310 314 317 321 323 325 326 325 325 327 330 332 334 333 330 328 328 327 326 327 327 326 326 327 327 327 327 328 327 326 326 326 328 331 331 332 333 333 332 331 332 333 334 334 333 333 334 335 336 337 337 338 337 336 335
191 192 193 195 197 197 200 202 204 207 209 216 231 243 254 266 274 285 295 299 299 298 296 295 298 302 306 310 309 308 311 313 316 321 324 325 326 326 327 329 332 334 336 335 332 329 327 326 325 326 326 325 325 325 325 325 325 326 325 325 326 326 327 329 330 330 331 331 330 331 331 331 334 334 333 332 333 334 335 337 337 335 334 332 332
189 191 194 197 199 200 203 205 207 209 212 219 233 244 254 266 275 283 291 296 300 303 305 308 310 309 311 315 314 312 313 314 316 320 324 326 328 330 330 331 332 332 334 335 333 331 328 326 325 325 325 324 324 324 324 324 324 324 324 324 324 324 324 326 327 328 329 329 329 330 331 331 332 335 334 332 332 333 334 334 334 333 331 331 330
190 193 196 198 200 202 205 207 209 211 214 222 234 246 257 267 275 284 290 293 297 299 303 309 314 315 318 322 320 316 313 313 316 320 324 328 332 333 332 330 328 328 329 332 332 330 328 327 327 325 324 324 324 324 324 323 323 323 324 323 322 322 322 323 325 325 326 327 328 330 331 330 331 334 334 332 331 332 334 335 333 331 331 330 329
193 195 197 200 202 204 206 207 210 213 218 227 238 249 260 269 276 284 289 292 295 298 302 309 314 316 320 324 324 319 316 316 319 324 328 332 334 334 332 330 328 326 327 329 329 328 326 326 327 326 324 324 324 323 324 323 323 323 323 322 321 322 322 322 323 324 325 326 327 329 330 329 330 333 333 331 330 331 333 334 334 332 331 332 331
194 196 199 202 205 207 207 208 211 215 221 230 241 253 264 272 278 284 287 290 293 297 303 308 311 315 320 324 323 322 320 321 324 329 331 333 334 334 332 330 330 328 328 328 328 327 325 325 326 326 325 324 324 324 324 323 323 323 322 321 320 321 322 322 323 324 325 325 326 328 329 329 330 332 332 330 331 331 332 333 333 332 331 330 329
194 195 199 202 206 208 209 210 213 218 223 231 243 255 265 273 279 284 288 291 294 298 304 306 309 315 320 322 322 322 320 320 324 327 328 329 331 331 331 330 330 329 329 328 328 327 325 325 325 325 325 324 324 324 324 323 323 323 322 321 319 319 320 321 322 322 324 324 325 326 327 328 329 331 331 330 330 331 331 331 331 330 329 327 326
194 195 199 203 207 209 211 213 216 220 225 233 243 253 263 272 280 284 287 291 294 299 303 304 308 315 318 318 319 319 317 317 320 323 323 325 327 328 329 330 330 329 328 328 328 327 326 325 325 325 324 325 325 325 325 324 324 323 322 320 319 318 319 320 321 322 323 324 324 325 326 327 329 329 329 329 329 330 330 330 330 330 329 328 328
195 197 200 203 207 210 213 216 219 222 228 236 245 254 263 272 278 282 286 290 293 298 301 303 308 314 316 316 317 317 316 316 318 320 321 324 325 326 328 330 330 329 328 328 328 327 326 325 324 324 324 324 325 325 325 325 324 323 322 320 319 318 318 319 321 322 323 323 323 324 325 326 327 327 327 327 328 329 330 330 330 330 329 329 330
198 200 203 206 209 213 216 218 221 225 231 239 246 254 263 272 277 280 285 289 292 296 300 303 309 313 314 314 316 317 317 318 319 319 321 323 324 326 328 329 330 329 329 328 328 328 326 325 324 324 324 324 325 325 324 325 324 323 322 320 319 318 318 318 320 322 323 323 323 323 324 325 325 325 326 327 327 328 329 329 329 330 329 328 329
200 202 205 208 212 215 217 219 223 228 234 241 248 254 260 268 274 279 284 288 292 296 299 302 307 311 312 314 316 317 318 319 320 321 322 323 324 326 328 329 330 330 329 329 330 329 327 325 325 325 326 326 326 326 325 325 325 323 322 321 319 317 317 318 319 321 323 322 321 322 322 323 323 324 325 326 326 326 327 328 328 328 328 328 328
202 204 206 209 212 215 218 220 225 230 235 242 249 255 261 268 274 280 284 288 292 295 298 301 305 308 309 312 315 317 318 320 320 321 322 323 324 326 328 329 329 329 329 330 330 329 328 327 326 326 327 327 328 328 327 326 326 325 323 321 318 316 317 318 319 321 322 321 320 320 320 320 321 322 323 325 325 324 324 325 326 325 325 326 326
205 206 208 211 214 216 219 222 226 231 237 243 249 255 262 268 273 279 284 287 291 294 297 300 304 305 308 311 314 316 318 320 320 321 323 324 325 327 328 329 329 329 329 330 330 329 329 329 327 327 327 328 329 329 328 328 328 327 325 324 321 319 319 320 320 321 321 320 320 320 319 318 319 321 321 322 323 322 321 322 323 323 322 323 322
207 208 209 213 216 218 220 224 228 233 238 244 250 257 264 269 274 279 283 287 290 294 296 299 302 304 307 310 313 315 318 319 319 321 323 324 325 327 328 328 329 329 329 330 330 330 330 330 329 328 328 329 329 330 330 330 330 328 327 327 325 323 322 322 321 320 320 320 319 318 317 317 318 319 320 320 320 320 319 319 320 320 320 320 320
209 210 211 214 217 219 221 223 227 233 239 245 252 259 265 270 275 279 283 288 292 295 297 298 301 304 308 310 313 315 317 318 319 321 322 324 326 327 328 328 328 329 329 330 331 331 331 331 331 330 330 330 330 331 331 331 331 331 330 329 328 326 324 322 319 318 318 317 316 315 314 315 316 317 318 318 317 317 318 317 317 319 319 318 318
211 211 213 216 217 220 222 225 229 235 240 246 253 259 264 270 275 279 285 290 293 295 296 298 301 305 308 311 313 316 317 319 320 321 323 325 326 327 328 328 329 329 328 329 330 331 332 332 332 332 331 331 332 332 332 333 333 332 331 330 328 327 325 321 318 317 315 313 312 311 312 313 314 315 315 316 316 316 315 315 316 317 317 315 316
212 213 215 218 219 222 225 227 232 238 241 246 253 259 264 270 276 280 286 291 293 294 296 298 301 305 308 310 313 316 317 318 320 321 323 325 327 328 328 329 329 329 329 329 330 331 332 332 333 333 333 333 333 333 333 333 333 332 331 330 328 327 325 322 319 317 315 312 312 311 311 311 312 312 313 315 315 314 314 314 314 315 314 313 314
214 215 217 219 221 224 227 229 232 237 241 247 254 261 265 272 277 281 286 291 292 293 295 298 301 305 308 310 313 315 317 318 321 322 323 325 326 327 328 328 328 328 329 329 330 331 332 332 333 334 334 334 334 334 334 334 334 332 331 331 329 328 327 324 321 320 319 317 314 313 311 311 311 311 312 314 314 312 312 312 312 312 312 312 312